Year,Month,Day,Hour,Minute,Value (Times are PST for temperature in C)
2016,08,25,00,00,16.60
2016,08,25,00,01,16.60
2016,08,25,00,02,16.60
2016,08,25,00,03,16.50
2016,08,25,00,04,16.50
2016,08,25,00,05,16.40
2016,08,25,00,06,16.40
2016,08,25,00,07,16.30
2016,08,25,00,08,16.30
2016,08,25,00,09,16.30
2016,08,25,00,10,16.30
2016,08,25,00,11,16.30
2016,08,25,00,12,16.20
2016,08,25,00,13,16.20
2016,08,25,00,14,16.20
2016,08,25,00,15,16.20
2016,08,25,00,16,16.20
2016,08,25,00,17,16.20
2016,08,25,00,18,16.20
2016,08,25,00,19,16.10
2016,08,25,00,20,16.10
2016,08,25,00,21,16.10
2016,08,25,00,22,16.10
2016,08,25,00,23,16.10
2016,08,25,00,24,16.10
2016,08,25,00,25,16.10
2016,08,25,00,26,16.00
2016,08,25,00,27,16.00
2016,08,25,00,28,15.90
2016,08,25,00,29,15.90
2016,08,25,00,30,15.90
2016,08,25,00,31,15.90
2016,08,25,00,32,15.90
2016,08,25,00,33,15.80
2016,08,25,00,34,15.80
2016,08,25,00,35,15.80
2016,08,25,00,36,15.80
2016,08,25,00,37,15.80
2016,08,25,00,38,15.80
2016,08,25,00,39,15.70
2016,08,25,00,40,15.70
2016,08,25,00,41,15.70
2016,08,25,00,42,15.70
2016,08,25,00,43,15.70
2016,08,25,00,44,15.70
2016,08,25,00,45,15.60
2016,08,25,00,46,15.60
2016,08,25,00,47,15.60
2016,08,25,00,48,15.60
2016,08,25,00,49,15.50
2016,08,25,00,50,15.50
2016,08,25,00,51,15.50
2016,08,25,00,52,15.40
2016,08,25,00,53,15.40
2016,08,25,00,54,15.40
2016,08,25,00,55,15.40
2016,08,25,00,56,15.40
2016,08,25,00,57,15.40
2016,08,25,00,58,15.40
2016,08,25,00,59,15.40
2016,08,25,01,00,15.40
2016,08,25,01,01,15.30
2016,08,25,01,02,15.30
2016,08,25,01,03,15.30
2016,08,25,01,04,15.30
2016,08,25,01,05,15.30
2016,08,25,01,06,15.30
2016,08,25,01,07,15.30
2016,08,25,01,08,15.30
2016,08,25,01,09,15.20
2016,08,25,01,10,15.20
2016,08,25,01,11,15.20
2016,08,25,01,12,15.20
2016,08,25,01,13,15.20
2016,08,25,01,14,15.20
2016,08,25,01,15,15.10
2016,08,25,01,16,15.10
2016,08,25,01,17,15.10
2016,08,25,01,18,15.10
2016,08,25,01,19,15.10
2016,08,25,01,20,15.00
2016,08,25,01,21,15.00
2016,08,25,01,22,14.90
2016,08,25,01,23,14.90
2016,08,25,01,24,14.90
2016,08,25,01,25,14.90
2016,08,25,01,26,14.90
2016,08,25,01,27,14.80
2016,08,25,01,28,14.80
2016,08,25,01,29,14.80
2016,08,25,01,30,14.80
2016,08,25,01,31,14.80
2016,08,25,01,32,14.80
2016,08,25,01,33,14.70
2016,08,25,01,34,14.70
2016,08,25,01,35,14.70
2016,08,25,01,36,14.70
2016,08,25,01,37,14.70
2016,08,25,01,38,14.70
2016,08,25,01,39,14.70
2016,08,25,01,40,14.70
2016,08,25,01,41,14.70
2016,08,25,01,42,14.70
2016,08,25,01,43,14.70
2016,08,25,01,44,14.70
2016,08,25,01,45,14.70
2016,08,25,01,46,14.70
2016,08,25,01,47,14.70
2016,08,25,01,48,14.60
2016,08,25,01,49,14.60
2016,08,25,01,50,14.60
2016,08,25,01,51,14.60
2016,08,25,01,52,14.60
2016,08,25,01,53,14.60
2016,08,25,01,54,14.60
2016,08,25,01,55,14.50
2016,08,25,01,56,14.50
2016,08,25,01,57,14.50
2016,08,25,01,58,14.40
2016,08,25,01,59,14.40
2016,08,25,02,00,14.40
2016,08,25,02,01,14.30
2016,08,25,02,02,14.30
2016,08,25,02,03,14.30
2016,08,25,02,04,14.30
2016,08,25,02,05,14.30
2016,08,25,02,06,14.30
2016,08,25,02,07,14.30
2016,08,25,02,08,14.20
2016,08,25,02,09,14.20
2016,08,25,02,10,14.20
2016,08,25,02,11,14.20
2016,08,25,02,12,14.20
2016,08,25,02,13,14.20
2016,08,25,02,14,14.20
2016,08,25,02,15,14.20
2016,08,25,02,16,14.20
2016,08,25,02,17,14.10
2016,08,25,02,18,14.10
2016,08,25,02,19,14.10
2016,08,25,02,20,14.10
2016,08,25,02,21,14.10
2016,08,25,02,22,14.10
2016,08,25,02,23,14.00
2016,08,25,02,24,14.00
2016,08,25,02,25,14.00
2016,08,25,02,26,14.00
2016,08,25,02,27,13.90
2016,08,25,02,28,13.90
2016,08,25,02,29,13.90
2016,08,25,02,30,13.90
2016,08,25,02,31,13.90
2016,08,25,02,32,13.90
2016,08,25,02,33,13.90
2016,08,25,02,34,13.90
2016,08,25,02,35,13.90
2016,08,25,02,36,13.80
2016,08,25,02,37,13.80
2016,08,25,02,38,13.80
2016,08,25,02,39,13.80
2016,08,25,02,40,13.80
2016,08,25,02,41,13.80
2016,08,25,02,42,13.80
2016,08,25,02,43,13.70
2016,08,25,02,44,13.70
2016,08,25,02,45,13.70
2016,08,25,02,46,13.70
2016,08,25,02,47,13.70
2016,08,25,02,48,13.70
2016,08,25,02,49,13.70
2016,08,25,02,50,13.60
2016,08,25,02,51,13.60
2016,08,25,02,52,13.60
2016,08,25,02,53,13.60
2016,08,25,02,54,13.60
2016,08,25,02,55,13.60
2016,08,25,02,56,13.60
2016,08,25,02,57,13.60
2016,08,25,02,58,13.50
2016,08,25,02,59,13.50
2016,08,25,03,00,13.50
2016,08,25,03,01,13.50
2016,08,25,03,02,13.50
2016,08,25,03,03,13.50
2016,08,25,03,04,13.50
2016,08,25,03,05,13.50
2016,08,25,03,06,13.50
2016,08,25,03,07,13.50
2016,08,25,03,08,13.40
2016,08,25,03,09,13.40
2016,08,25,03,10,13.40
2016,08,25,03,11,13.40
2016,08,25,03,12,13.40
2016,08,25,03,13,13.30
2016,08,25,03,14,13.30
2016,08,25,03,15,13.30
2016,08,25,03,16,13.30
2016,08,25,03,17,13.20
2016,08,25,03,18,13.20
2016,08,25,03,19,13.20
2016,08,25,03,20,13.20
2016,08,25,03,21,13.20
2016,08,25,03,22,13.20
2016,08,25,03,23,13.20
2016,08,25,03,24,13.20
2016,08,25,03,25,13.10
2016,08,25,03,26,13.10
2016,08,25,03,27,13.10
2016,08,25,03,28,13.10
2016,08,25,03,29,13.10
2016,08,25,03,30,13.10
2016,08,25,03,31,13.10
2016,08,25,03,32,13.00
2016,08,25,03,33,13.00
2016,08,25,03,34,13.00
2016,08,25,03,35,13.00
2016,08,25,03,36,13.00
2016,08,25,03,37,12.90
2016,08,25,03,38,12.90
2016,08,25,03,39,12.90
2016,08,25,03,40,12.90
2016,08,25,03,41,12.90
2016,08,25,03,42,12.90
2016,08,25,03,43,12.90
2016,08,25,03,44,12.90
2016,08,25,03,45,12.90
2016,08,25,03,46,12.90
2016,08,25,03,47,12.90
2016,08,25,03,48,12.90
2016,08,25,03,49,12.80
2016,08,25,03,50,12.80
2016,08,25,03,51,12.80
2016,08,25,03,52,12.80
2016,08,25,03,53,12.80
2016,08,25,03,54,12.80
2016,08,25,03,55,12.80
2016,08,25,03,56,12.70
2016,08,25,03,57,12.70
2016,08,25,03,58,12.70
2016,08,25,03,59,12.70
2016,08,25,04,00,12.70
2016,08,25,04,01,12.70
2016,08,25,04,02,12.70
2016,08,25,04,03,12.70
2016,08,25,04,04,12.70
2016,08,25,04,05,12.60
2016,08,25,04,06,12.60
2016,08,25,04,07,12.60
2016,08,25,04,08,12.60
2016,08,25,04,09,12.60
2016,08,25,04,10,12.60
2016,08,25,04,11,12.60
2016,08,25,04,12,12.50
2016,08,25,04,13,12.50
2016,08,25,04,14,12.50
2016,08,25,04,15,12.50
2016,08,25,04,16,12.40
2016,08,25,04,17,12.40
2016,08,25,04,18,12.40
2016,08,25,04,19,12.40
2016,08,25,04,20,12.40
2016,08,25,04,21,12.40
2016,08,25,04,22,12.40
2016,08,25,04,23,12.30
2016,08,25,04,24,12.30
2016,08,25,04,25,12.30
2016,08,25,04,26,12.30
2016,08,25,04,27,12.30
2016,08,25,04,28,12.30
2016,08,25,04,29,12.30
2016,08,25,04,30,12.30
2016,08,25,04,31,12.30
2016,08,25,04,32,12.30
2016,08,25,04,33,12.20
2016,08,25,04,34,12.20
2016,08,25,04,35,12.20
2016,08,25,04,36,12.20
2016,08,25,04,37,12.20
2016,08,25,04,38,12.20
2016,08,25,04,39,12.20
2016,08,25,04,40,12.20
2016,08,25,04,41,12.20
2016,08,25,04,42,12.20
2016,08,25,04,43,12.20
2016,08,25,04,44,12.20
2016,08,25,04,45,12.10
2016,08,25,04,46,12.10
2016,08,25,04,47,12.10
2016,08,25,04,48,12.10
2016,08,25,04,49,12.10
2016,08,25,04,50,12.10
2016,08,25,04,51,12.10
2016,08,25,04,52,12.10
2016,08,25,04,53,12.10
2016,08,25,04,54,12.00
2016,08,25,04,55,12.00
2016,08,25,04,56,12.00
2016,08,25,04,57,12.00
2016,08,25,04,58,11.90
2016,08,25,04,59,11.90
2016,08,25,05,00,11.90
2016,08,25,05,01,11.90
2016,08,25,05,02,11.90
2016,08,25,05,03,11.90
2016,08,25,05,04,11.90
2016,08,25,05,05,11.90
2016,08,25,05,06,11.90
2016,08,25,05,07,11.90
2016,08,25,05,08,11.90
2016,08,25,05,09,11.90
2016,08,25,05,10,11.90
2016,08,25,05,11,11.90
2016,08,25,05,12,11.90
2016,08,25,05,13,11.80
2016,08,25,05,14,11.80
2016,08,25,05,15,11.80
2016,08,25,05,16,11.80
2016,08,25,05,17,11.80
2016,08,25,05,18,11.80
2016,08,25,05,19,11.80
2016,08,25,05,20,11.80
2016,08,25,05,21,11.80
2016,08,25,05,22,11.80
2016,08,25,05,23,11.80
2016,08,25,05,24,11.80
2016,08,25,05,25,11.80
2016,08,25,05,26,11.80
2016,08,25,05,27,11.70
2016,08,25,05,28,11.70
2016,08,25,05,29,11.70
2016,08,25,05,30,11.70
2016,08,25,05,31,11.70
2016,08,25,05,32,11.70
2016,08,25,05,33,11.70
2016,08,25,05,34,11.70
2016,08,25,05,35,11.70
2016,08,25,05,36,11.60
2016,08,25,05,37,11.60
2016,08,25,05,38,11.60
2016,08,25,05,39,11.60
2016,08,25,05,40,11.60
2016,08,25,05,41,11.60
2016,08,25,05,42,11.60
2016,08,25,05,43,11.50
2016,08,25,05,44,11.50
2016,08,25,05,45,11.50
2016,08,25,05,46,11.50
2016,08,25,05,47,11.50
2016,08,25,05,48,11.40
2016,08,25,05,49,11.40
2016,08,25,05,50,11.40
2016,08,25,05,51,11.40
2016,08,25,05,52,11.40
2016,08,25,05,53,11.40
2016,08,25,05,54,11.40
2016,08,25,05,55,11.40
2016,08,25,05,56,11.40
2016,08,25,05,57,11.40
2016,08,25,05,58,11.40
2016,08,25,05,59,11.40
2016,08,25,06,00,11.40
2016,08,25,06,01,11.40
2016,08,25,06,02,11.40
2016,08,25,06,03,11.40
2016,08,25,06,04,11.40
2016,08,25,06,05,11.30
2016,08,25,06,06,11.30
2016,08,25,06,07,11.30
2016,08,25,06,08,11.30
2016,08,25,06,09,11.30
2016,08,25,06,10,11.30
2016,08,25,06,11,11.30
2016,08,25,06,12,11.30
2016,08,25,06,13,11.30
2016,08,25,06,14,11.20
2016,08,25,06,15,11.20
2016,08,25,06,16,11.20
2016,08,25,06,17,11.20
2016,08,25,06,18,11.20
2016,08,25,06,19,11.20
2016,08,25,06,20,11.20
2016,08,25,06,21,11.20
2016,08,25,06,22,11.20
2016,08,25,06,23,11.20
2016,08,25,06,24,11.20
2016,08,25,06,25,11.20
2016,08,25,06,26,11.20
2016,08,25,06,27,11.10
2016,08,25,06,28,11.10
2016,08,25,06,29,11.10
2016,08,25,06,30,11.10
2016,08,25,06,31,11.10
2016,08,25,06,32,11.10
2016,08,25,06,33,11.10
2016,08,25,06,34,11.10
2016,08,25,06,35,11.10
2016,08,25,06,36,11.10
2016,08,25,06,37,11.10
2016,08,25,06,38,11.10
2016,08,25,06,39,11.10
2016,08,25,06,40,11.10
2016,08,25,06,41,11.10
2016,08,25,06,42,11.10
2016,08,25,06,43,11.10
2016,08,25,06,44,11.10
2016,08,25,06,45,11.10
2016,08,25,06,46,11.10
2016,08,25,06,47,11.00
2016,08,25,06,48,11.10
2016,08,25,06,49,11.00
2016,08,25,06,50,11.00
2016,08,25,06,51,11.00
2016,08,25,06,52,11.00
2016,08,25,06,53,11.00
2016,08,25,06,54,11.00
2016,08,25,06,55,10.90
2016,08,25,06,56,10.90
2016,08,25,06,57,10.90
2016,08,25,06,58,10.90
2016,08,25,06,59,10.90
2016,08,25,07,00,10.90
2016,08,25,07,01,10.90
2016,08,25,07,02,10.90
2016,08,25,07,03,10.90
2016,08,25,07,04,10.90
2016,08,25,07,05,10.90
2016,08,25,07,06,10.90
2016,08,25,07,07,10.90
2016,08,25,07,08,10.90
2016,08,25,07,09,10.90
2016,08,25,07,10,10.90
2016,08,25,07,11,10.90
2016,08,25,07,12,10.90
2016,08,25,07,13,10.90
2016,08,25,07,14,10.90
2016,08,25,07,15,10.90
2016,08,25,07,16,10.90
2016,08,25,07,17,10.90
2016,08,25,07,18,10.90
2016,08,25,07,19,10.90
2016,08,25,07,20,10.90
2016,08,25,07,21,10.90
2016,08,25,07,22,10.90
2016,08,25,07,23,10.90
2016,08,25,07,24,10.90
2016,08,25,07,25,10.90
2016,08,25,07,26,10.90
2016,08,25,07,27,10.90
2016,08,25,07,28,11.00
2016,08,25,07,29,11.00
2016,08,25,07,30,11.00
2016,08,25,07,31,11.00
2016,08,25,07,32,11.00
2016,08,25,07,33,11.00
2016,08,25,07,34,11.00
2016,08,25,07,35,11.00
2016,08,25,07,36,11.00
2016,08,25,07,37,11.10
2016,08,25,07,38,11.00
2016,08,25,07,39,11.10
2016,08,25,07,40,11.10
2016,08,25,07,41,11.10
2016,08,25,07,42,11.10
2016,08,25,07,43,11.10
2016,08,25,07,44,11.10
2016,08,25,07,45,11.10
2016,08,25,07,46,11.10
2016,08,25,07,47,11.10
2016,08,25,07,48,11.10
2016,08,25,07,49,11.10
2016,08,25,07,50,11.10
2016,08,25,07,51,11.10
2016,08,25,07,52,11.10
2016,08,25,07,53,11.10
2016,08,25,07,54,11.10
2016,08,25,07,55,11.10
2016,08,25,07,56,11.10
2016,08,25,07,57,11.10
2016,08,25,07,58,11.10
2016,08,25,07,59,11.20
2016,08,25,08,00,11.20
2016,08,25,08,01,11.20
2016,08,25,08,02,11.30
2016,08,25,08,03,11.40
2016,08,25,08,04,11.50
2016,08,25,08,05,11.60
2016,08,25,08,06,11.80
2016,08,25,08,07,11.90
2016,08,25,08,08,12.00
2016,08,25,08,09,12.10
2016,08,25,08,10,12.20
2016,08,25,08,11,12.30
2016,08,25,08,12,12.40
2016,08,25,08,13,12.50
2016,08,25,08,14,12.70
2016,08,25,08,15,12.80
2016,08,25,08,16,12.90
2016,08,25,08,17,13.00
2016,08,25,08,18,13.10
2016,08,25,08,19,13.20
2016,08,25,08,20,13.40
2016,08,25,08,21,13.50
2016,08,25,08,22,13.60
2016,08,25,08,23,13.70
2016,08,25,08,24,13.80
2016,08,25,08,25,13.90
2016,08,25,08,26,13.90
2016,08,25,08,27,14.00
2016,08,25,08,28,14.10
2016,08,25,08,29,14.10
2016,08,25,08,30,14.20
2016,08,25,08,31,14.30
2016,08,25,08,32,14.30
2016,08,25,08,33,14.40
2016,08,25,08,34,14.50
2016,08,25,08,35,14.60
2016,08,25,08,36,14.70
2016,08,25,08,37,14.80
2016,08,25,08,38,15.00
2016,08,25,08,39,15.10
2016,08,25,08,40,15.20
2016,08,25,08,41,15.30
2016,08,25,08,42,15.50
2016,08,25,08,43,15.60
2016,08,25,08,44,15.60
2016,08,25,08,45,15.70
2016,08,25,08,46,15.80
2016,08,25,08,47,15.80
2016,08,25,08,48,15.90
2016,08,25,08,49,16.00
2016,08,25,08,50,16.00
2016,08,25,08,51,16.10
2016,08,25,08,52,16.10
2016,08,25,08,53,16.10
2016,08,25,08,54,16.10
2016,08,25,08,55,16.20
2016,08,25,08,56,16.20
2016,08,25,08,57,16.20
2016,08,25,08,58,16.30
2016,08,25,08,59,16.30
2016,08,25,09,00,16.30
2016,08,25,09,01,16.40
2016,08,25,09,02,16.40
2016,08,25,09,03,16.50
2016,08,25,09,04,16.60
2016,08,25,09,05,16.60
2016,08,25,09,06,16.70
2016,08,25,09,07,16.80
2016,08,25,09,08,16.80
2016,08,25,09,09,16.90
2016,08,25,09,10,16.90
2016,08,25,09,11,17.00
2016,08,25,09,12,17.00
2016,08,25,09,13,17.00
2016,08,25,09,14,17.10
2016,08,25,09,15,17.10
2016,08,25,09,16,17.20
2016,08,25,09,17,17.20
2016,08,25,09,18,17.20
2016,08,25,09,19,17.30
2016,08,25,09,20,17.30
2016,08,25,09,21,17.40
2016,08,25,09,22,17.40
2016,08,25,09,23,17.50
2016,08,25,09,24,17.60
2016,08,25,09,25,17.70
2016,08,25,09,26,17.80
2016,08,25,09,27,17.80
2016,08,25,09,28,17.90
2016,08,25,09,29,18.00
2016,08,25,09,30,18.10
2016,08,25,09,31,18.20
2016,08,25,09,32,18.20
2016,08,25,09,33,18.30
2016,08,25,09,34,18.40
2016,08,25,09,35,18.50
2016,08,25,09,36,18.50
2016,08,25,09,37,18.50
2016,08,25,09,38,18.60
2016,08,25,09,39,18.60
2016,08,25,09,40,18.60
2016,08,25,09,41,18.60
2016,08,25,09,42,18.70
2016,08,25,09,43,18.70
2016,08,25,09,44,18.70
2016,08,25,09,45,18.80
2016,08,25,09,46,18.80
2016,08,25,09,47,18.90
2016,08,25,09,48,18.90
2016,08,25,09,49,18.90
2016,08,25,09,50,19.00
2016,08,25,09,51,19.00
2016,08,25,09,52,19.10
2016,08,25,09,53,19.10
2016,08,25,09,54,19.20
2016,08,25,09,55,19.20
2016,08,25,09,56,19.30
2016,08,25,09,57,19.30
2016,08,25,09,58,19.30
2016,08,25,09,59,19.40
2016,08,25,10,00,19.40
2016,08,25,10,01,19.40
2016,08,25,10,02,19.50
2016,08,25,10,03,19.50
2016,08,25,10,04,19.60
2016,08,25,10,05,19.70
2016,08,25,10,06,19.70
2016,08,25,10,07,19.80
2016,08,25,10,08,19.80
2016,08,25,10,09,19.90
2016,08,25,10,10,20.00
2016,08,25,10,11,20.10
2016,08,25,10,12,20.10
2016,08,25,10,13,20.20
2016,08,25,10,14,20.30
2016,08,25,10,15,20.40
2016,08,25,10,16,20.40
2016,08,25,10,17,20.40
2016,08,25,10,18,20.50
2016,08,25,10,19,20.50
2016,08,25,10,20,20.60
2016,08,25,10,21,20.60
2016,08,25,10,22,20.70
2016,08,25,10,23,20.80
2016,08,25,10,24,20.80
2016,08,25,10,25,20.80
2016,08,25,10,26,20.90
2016,08,25,10,27,20.90
2016,08,25,10,28,20.90
2016,08,25,10,29,21.00
2016,08,25,10,30,21.00
2016,08,25,10,31,21.10
2016,08,25,10,32,21.10
2016,08,25,10,33,21.20
2016,08,25,10,34,21.20
2016,08,25,10,35,21.30
2016,08,25,10,36,21.40
2016,08,25,10,37,21.40
2016,08,25,10,38,21.50
2016,08,25,10,39,21.60
2016,08,25,10,40,21.70
2016,08,25,10,41,21.80
2016,08,25,10,42,21.80
2016,08,25,10,43,21.90
2016,08,25,10,44,22.00
2016,08,25,10,45,22.00
2016,08,25,10,46,22.10
2016,08,25,10,47,22.20
2016,08,25,10,48,22.20
2016,08,25,10,49,22.20
2016,08,25,10,50,22.20
2016,08,25,10,51,22.20
2016,08,25,10,52,22.20
2016,08,25,10,53,22.20
2016,08,25,10,54,22.20
2016,08,25,10,55,22.20
2016,08,25,10,56,22.20
2016,08,25,10,57,22.20
2016,08,25,10,58,22.20
2016,08,25,10,59,22.20
2016,08,25,11,00,22.30
2016,08,25,11,01,22.30
2016,08,25,11,02,22.50
2016,08,25,11,03,22.60
2016,08,25,11,04,22.70
2016,08,25,11,05,22.80
2016,08,25,11,06,22.90
2016,08,25,11,07,23.00
2016,08,25,11,08,23.00
2016,08,25,11,09,23.10
2016,08,25,11,10,23.20
2016,08,25,11,11,23.20
2016,08,25,11,12,23.20
2016,08,25,11,13,23.30
2016,08,25,11,14,23.30
2016,08,25,11,15,23.30
2016,08,25,11,16,23.40
2016,08,25,11,17,23.50
2016,08,25,11,18,23.60
2016,08,25,11,19,23.70
2016,08,25,11,20,23.70
2016,08,25,11,21,23.80
2016,08,25,11,22,23.80
2016,08,25,11,23,23.90
2016,08,25,11,24,24.00
2016,08,25,11,25,24.10
2016,08,25,11,26,24.10
2016,08,25,11,27,24.20
2016,08,25,11,28,24.30
2016,08,25,11,29,24.30
2016,08,25,11,30,24.40
2016,08,25,11,31,24.50
2016,08,25,11,32,24.60
2016,08,25,11,33,24.70
2016,08,25,11,34,24.80
2016,08,25,11,35,24.90
2016,08,25,11,36,25.00
2016,08,25,11,37,25.10
2016,08,25,11,38,25.20
2016,08,25,11,39,25.30
2016,08,25,11,40,25.40
2016,08,25,11,41,25.40
2016,08,25,11,42,25.50
2016,08,25,11,43,25.50
2016,08,25,11,44,25.60
2016,08,25,11,45,25.70
2016,08,25,11,46,25.80
2016,08,25,11,47,25.90
2016,08,25,11,48,25.90
2016,08,25,11,49,26.00
2016,08,25,11,50,26.00
2016,08,25,11,51,26.10
2016,08,25,11,52,26.10
2016,08,25,11,53,26.20
2016,08,25,11,54,26.30
2016,08,25,11,55,26.30
2016,08,25,11,56,26.40
2016,08,25,11,57,26.50
2016,08,25,11,58,26.60
2016,08,25,11,59,26.70
2016,08,25,12,00,26.70
2016,08,25,12,01,26.80
2016,08,25,12,02,26.80
2016,08,25,12,03,26.80
2016,08,25,12,04,26.80
2016,08,25,12,05,26.90
2016,08,25,12,06,26.90
2016,08,25,12,07,26.90
2016,08,25,12,08,26.90
2016,08,25,12,09,27.00
2016,08,25,12,10,27.00
2016,08,25,12,11,27.10
2016,08,25,12,12,27.20
2016,08,25,12,13,27.20
2016,08,25,12,14,27.20
2016,08,25,12,15,27.20
2016,08,25,12,16,27.30
2016,08,25,12,17,27.30
2016,08,25,12,18,27.40
2016,08,25,12,19,27.50
2016,08,25,12,20,27.60
2016,08,25,12,21,27.60
2016,08,25,12,22,27.60
2016,08,25,12,23,27.70
2016,08,25,12,24,27.70
2016,08,25,12,25,27.80
2016,08,25,12,26,27.80
2016,08,25,12,27,27.90
2016,08,25,12,28,28.00
2016,08,25,12,29,28.10
2016,08,25,12,30,28.10
2016,08,25,12,31,28.20
2016,08,25,12,32,28.20
2016,08,25,12,33,28.20
2016,08,25,12,34,28.20
2016,08,25,12,35,28.30
2016,08,25,12,36,28.30
2016,08,25,12,37,28.30
2016,08,25,12,38,28.30
2016,08,25,12,39,28.40
2016,08,25,12,40,28.50
2016,08,25,12,41,28.60
2016,08,25,12,42,28.70
2016,08,25,12,43,28.80
2016,08,25,12,44,28.90
2016,08,25,12,45,29.00
2016,08,25,12,46,29.10
2016,08,25,12,47,29.30
2016,08,25,12,48,29.40
2016,08,25,12,49,29.40
2016,08,25,12,50,29.50
2016,08,25,12,51,29.50
2016,08,25,12,52,29.50
2016,08,25,12,53,29.50
2016,08,25,12,54,29.60
2016,08,25,12,55,29.60
2016,08,25,12,56,29.60
2016,08,25,12,57,29.60
2016,08,25,12,58,29.60
2016,08,25,12,59,29.60
2016,08,25,13,00,29.60
2016,08,25,13,01,29.60
2016,08,25,13,02,29.60
2016,08,25,13,03,29.60
2016,08,25,13,04,29.70
2016,08,25,13,05,29.80
2016,08,25,13,06,29.80
2016,08,25,13,07,29.90
2016,08,25,13,08,29.90
2016,08,25,13,09,29.90
2016,08,25,13,10,30.00
2016,08,25,13,11,30.10
2016,08,25,13,12,30.10
2016,08,25,13,13,30.20
2016,08,25,13,14,30.30
2016,08,25,13,15,30.30
2016,08,25,13,16,30.40
2016,08,25,13,17,30.40
2016,08,25,13,18,30.40
2016,08,25,13,19,30.50
2016,08,25,13,20,30.50
2016,08,25,13,21,30.60
2016,08,25,13,22,30.70
2016,08,25,13,23,30.80
2016,08,25,13,24,30.90
2016,08,25,13,25,31.10
2016,08,25,13,26,31.20
2016,08,25,13,27,31.30
2016,08,25,13,28,31.30
2016,08,25,13,29,31.40
2016,08,25,13,30,31.50
2016,08,25,13,31,31.60
2016,08,25,13,32,31.80
2016,08,25,13,33,31.90
2016,08,25,13,34,32.00
2016,08,25,13,35,32.10
2016,08,25,13,36,32.20
2016,08,25,13,37,32.30
2016,08,25,13,38,32.30
2016,08,25,13,39,32.30
2016,08,25,13,40,32.30
2016,08,25,13,41,32.30
2016,08,25,13,42,32.30
2016,08,25,13,43,32.30
2016,08,25,13,44,32.30
2016,08,25,13,45,32.40
2016,08,25,13,46,32.40
2016,08,25,13,47,32.40
2016,08,25,13,48,32.40
2016,08,25,13,49,32.50
2016,08,25,13,50,32.60
2016,08,25,13,51,32.60
2016,08,25,13,52,32.70
2016,08,25,13,53,32.70
2016,08,25,13,54,32.80
2016,08,25,13,55,32.80
2016,08,25,13,56,32.90
2016,08,25,13,57,32.90
2016,08,25,13,58,32.90
2016,08,25,13,59,33.00
2016,08,25,14,00,33.00
2016,08,25,14,01,33.10
2016,08,25,14,02,33.10
2016,08,25,14,03,33.10
2016,08,25,14,04,33.20
2016,08,25,14,05,33.30
2016,08,25,14,06,33.40
2016,08,25,14,07,33.60
2016,08,25,14,08,33.60
2016,08,25,14,09,33.70
2016,08,25,14,10,33.80
2016,08,25,14,11,33.80
2016,08,25,14,12,33.80
2016,08,25,14,13,33.80
2016,08,25,14,14,33.80
2016,08,25,14,15,33.70
2016,08,25,14,16,33.60
2016,08,25,14,17,33.60
2016,08,25,14,18,33.60
2016,08,25,14,19,33.60
2016,08,25,14,20,33.60
2016,08,25,14,21,33.50
2016,08,25,14,22,33.50
2016,08,25,14,23,33.50
2016,08,25,14,24,33.60
2016,08,25,14,25,33.60
2016,08,25,14,26,33.70
2016,08,25,14,27,33.80
2016,08,25,14,28,33.80
2016,08,25,14,29,33.80
2016,08,25,14,30,33.80
2016,08,25,14,31,33.80
2016,08,25,14,32,33.90
2016,08,25,14,33,33.90
2016,08,25,14,34,33.90
2016,08,25,14,35,34.00
2016,08,25,14,36,34.10
2016,08,25,14,37,34.10
2016,08,25,14,38,34.20
2016,08,25,14,39,34.30
2016,08,25,14,40,34.40
2016,08,25,14,41,34.50
2016,08,25,14,42,34.50
2016,08,25,14,43,34.50
2016,08,25,14,44,34.50
2016,08,25,14,45,34.40
2016,08,25,14,46,34.30
2016,08,25,14,47,34.30
2016,08,25,14,48,34.20
2016,08,25,14,49,34.20
2016,08,25,14,50,34.20
2016,08,25,14,51,34.20
2016,08,25,14,52,34.30
2016,08,25,14,53,34.30
2016,08,25,14,54,34.40
2016,08,25,14,55,34.40
2016,08,25,14,56,34.40
2016,08,25,14,57,34.30
2016,08,25,14,58,34.30
2016,08,25,14,59,34.20
2016,08,25,15,00,34.10
2016,08,25,15,01,34.10
2016,08,25,15,02,34.10
2016,08,25,15,03,34.10
2016,08,25,15,04,34.00
2016,08,25,15,05,34.00
2016,08,25,15,06,33.90
2016,08,25,15,07,33.90
2016,08,25,15,08,33.90
2016,08,25,15,09,34.00
2016,08,25,15,10,34.10
2016,08,25,15,11,34.20
2016,08,25,15,12,34.20
2016,08,25,15,13,34.30
2016,08,25,15,14,34.30
2016,08,25,15,15,34.30
2016,08,25,15,16,34.30
2016,08,25,15,17,34.40
2016,08,25,15,18,34.40
2016,08,25,15,19,34.50
2016,08,25,15,20,34.60
2016,08,25,15,21,34.70
2016,08,25,15,22,34.80
2016,08,25,15,23,34.80
2016,08,25,15,24,34.90
2016,08,25,15,25,35.00
2016,08,25,15,26,35.10
2016,08,25,15,27,35.20
2016,08,25,15,28,35.40
2016,08,25,15,29,35.40
2016,08,25,15,30,35.40
2016,08,25,15,31,35.30
2016,08,25,15,32,35.20
2016,08,25,15,33,35.10
2016,08,25,15,34,35.00
2016,08,25,15,35,34.90
2016,08,25,15,36,34.90
2016,08,25,15,37,34.90
2016,08,25,15,38,35.00
2016,08,25,15,39,35.00
2016,08,25,15,40,34.90
2016,08,25,15,41,34.80
2016,08,25,15,42,34.80
2016,08,25,15,43,34.80
2016,08,25,15,44,34.90
2016,08,25,15,45,34.90
2016,08,25,15,46,34.90
2016,08,25,15,47,34.90
2016,08,25,15,48,34.90
2016,08,25,15,49,34.90
2016,08,25,15,50,34.90
2016,08,25,15,51,34.90
2016,08,25,15,52,34.90
2016,08,25,15,53,34.90
2016,08,25,15,54,34.90
2016,08,25,15,55,34.90
2016,08,25,15,56,35.00
2016,08,25,15,57,35.00
2016,08,25,15,58,35.10
2016,08,25,15,59,35.20
2016,08,25,16,00,35.10
2016,08,25,16,01,35.10
2016,08,25,16,02,35.10
2016,08,25,16,03,35.10
2016,08,25,16,04,35.10
2016,08,25,16,05,35.10
2016,08,25,16,06,35.20
2016,08,25,16,07,35.30
2016,08,25,16,08,35.40
2016,08,25,16,09,35.40
2016,08,25,16,10,35.50
2016,08,25,16,11,35.40
2016,08,25,16,12,35.40
2016,08,25,16,13,35.40
2016,08,25,16,14,35.40
2016,08,25,16,15,35.40
2016,08,25,16,16,35.40
2016,08,25,16,17,35.40
2016,08,25,16,18,35.40
2016,08,25,16,19,35.30
2016,08,25,16,20,35.20
2016,08,25,16,21,35.20
2016,08,25,16,22,35.20
2016,08,25,16,23,35.20
2016,08,25,16,24,35.30
2016,08,25,16,25,35.30
2016,08,25,16,26,35.20
2016,08,25,16,27,35.20
2016,08,25,16,28,35.20
2016,08,25,16,29,35.20
2016,08,25,16,30,35.20
2016,08,25,16,31,35.20
2016,08,25,16,32,35.20
2016,08,25,16,33,35.20
2016,08,25,16,34,35.10
2016,08,25,16,35,35.10
2016,08,25,16,36,35.00
2016,08,25,16,37,34.90
2016,08,25,16,38,34.80
2016,08,25,16,39,34.70
2016,08,25,16,40,34.60
2016,08,25,16,41,34.50
2016,08,25,16,42,34.40
2016,08,25,16,43,34.30
2016,08,25,16,44,34.30
2016,08,25,16,45,34.20
2016,08,25,16,46,34.20
2016,08,25,16,47,34.10
2016,08,25,16,48,34.10
2016,08,25,16,49,34.00
2016,08,25,16,50,34.00
2016,08,25,16,51,33.90
2016,08,25,16,52,33.90
2016,08,25,16,53,33.90
2016,08,25,16,54,34.00
2016,08,25,16,55,34.10
2016,08,25,16,56,34.10
2016,08,25,16,57,34.20
2016,08,25,16,58,34.20
2016,08,25,16,59,34.20
2016,08,25,17,00,34.20
2016,08,25,17,01,34.20
2016,08,25,17,02,34.10
2016,08,25,17,03,34.00
2016,08,25,17,04,34.00
2016,08,25,17,05,33.90
2016,08,25,17,06,33.80
2016,08,25,17,07,33.80
2016,08,25,17,08,33.80
2016,08,25,17,09,33.80
2016,08,25,17,10,33.70
2016,08,25,17,11,33.70
2016,08,25,17,12,33.80
2016,08,25,17,13,33.80
2016,08,25,17,14,33.80
2016,08,25,17,15,33.70
2016,08,25,17,16,33.70
2016,08,25,17,17,33.70
2016,08,25,17,18,33.70
2016,08,25,17,19,33.70